Regional Weather Roundup
Issued by NWS Charleston, SC

Current Version | Previous Version | Graphics & Text | Print | Product List | Glossary On
Versions: 1 2 3 4 5 6 7 8 9 10 11 12 13 14 15 16 17 18 19 20 21 22 23 24 25 26 27 28 29 30 31 32 33 34 35 36 37 38 39 40 41 42 43 44 45 46 47 48 49 50
000 ASUS42 KCHS 271425 RWRCHS REGIONAL WEATHER ROUNDUP NATIONAL WEATHER SERVICE CHARLESTON SC 900 AM EST THU NOV 27 2014 NOTE: "FAIR" INDICATES FEW OR NO CLOUDS BELOW 12,000 FEET WITH NO SIGNIFICANT WEATHER AND/OR OBSTRUCTIONS TO VISIBILITY. NOT ALL STATIONS ARE QUALITY CONTROLLED BY THE NATIONAL WEATHER SERVICE. USE DATA WITH CAUTION...ESPECIALLY DEWPOINT OBSERVATIONS. SCZ027-030-031-034>040-042>050-271500- ...SOUTHEAST SOUTH CAROLINA... CITY SKY/WX TMP DP RH WIND PRES REMARKS N CHARLESTON SUNNY 49 34 56 W14G21 30.13R WATERFRONT PRK N/A 52 N/A N/A W10G18 N/A MOUNT PLEASANT FAIR 52 34 50 W13G20 30.13S JOHNS ISLAND SUNNY 52 41 66 W18 30.15R PINOPOLIS N/A 48 39 71 W16 30.03R MONCKS CORNER FAIR 50 41 71 W6 30.12R SUMMERVILLE FAIR 48 36 61 W16G23 30.15R BEAUFORT MCAS SUNNY 51 34 52 W15G25 30.17R BEAUFORT ARPT FAIR 52 36 54 W18G26 30.17R HILTON HEAD IS SUNNY 50 36 57 SW12G18 30.20R WALTERBORO SUNNY 50 32 50 W10G22 30.16R ALLENDALE FAIR 48 34 57 VRB6G16 30.16R ...SOUTHERN MIDLANDS AND PEE DEE... CITY SKY/WX TMP DP RH WIND PRES REMARKS GEORGETOWN NOT AVBL KINGSTREE NOT AVBL ORANGEBURG SUNNY 47 31 53 W14 30.12R BARNWELL FAIR 46 34 61 W12G20 30.15R AIKEN FAIR 46 32 57 W16G26 30.16R MANNING NOT AVBL COLUMBIA SUNNY 48 31 51 W18G31 30.10R SUMTER SUNNY 46 31 55 W17 30.06R FLORENCE SUNNY 46 36 68 W10 30.06R MYRTLE BEACH SUNNY 48 36 61 W9 30.08R N MYRTLE BEACH SUNNY 49 36 61 W12G22 30.06R $$ GAZ063-065-086>088-099>101-113>116-118-119-134>141-150-271500- ...SOUTHEAST GEORGIA... CITY SKY/WX TMP DP RH WIND PRES REMARKS SAVANNAH ARPT SUNNY 51 36 56 SW9 30.20R HUNTER AAF SUNNY 50 36 59 W14 30.19R FORT STEWART SUNNY 48 38 70 SW10 30.21R STATESBORO NOT AVBL SYLVANIA SUNNY 50 36 60 NW13G23 30.19S CLAXTON FAIR 52 14 22 W16G26 30.21S ...CSRA...CENTRAL AND FAR SOUTHEAST GEORGIA... CITY SKY/WX TMP DP RH WIND PRES REMARKS THOMSON SUNNY 48 37 67 W9G22 30.23R AUGUSTA-BUSH SUNNY 47 30 51 NW22G30 30.16R AUGUSTA-DANIEL SUNNY 47 30 51 W16G25 30.16R SWAINSBORO FAIR 50 36 57 W13G20 30.22R VIDALIA SUNNY 48 34 57 NW8G20 30.23R HAZLEHURST FAIR 51 37 59 NW7 30.24R ALMA SUNNY 48 39 71 W8 30.25R WAYCROSS SUNNY 55 41 60 NW12 30.27R JESUP FAIR 54 41 62 NW6 30.25S BAXLEY FAIR 52 36 54 W7 30.25R BRUNSWICK SUNNY 52 37 58 W12 30.26R SAINT SIMONS SUNNY 51 39 63 W7 30.25R $$ SCZ027-028-034-036>038-045-046-048>050-GAZ119-141-271500- ...LAKE AND SUPPLEMENTAL COASTAL OBSERVATIONS... STATION/POSITION TIME TEMP WIND PRES WAVE SWELL AIR SEA DIR/SP/G HT/PER HT/PER/DIR (UTC) (F) (DEG/KT/KT) (MB) (FT/S) (FT/S/D) UPR LAKE MARION NOT AVBL WINYAH BAY 1400 48 270/ 11 1019.0R LAKE MURRAY 1300 46 270/ 18/ 24 1017.9R ACE BASIN NERRS 1400 49 270/ 4 1021.0S FORT PULASKI 1400 51 250/ 12/ 15 1022.7R SAPELO ISLAND 1400 51 280/ 12 1024.0S $$ ANZ835-935-AMZ111-154-330-350-352-354-370-450-454-472-271500- ...C-MAN AND BUOY OBSERVATIONS... STATION/POSITION TIME TEMP WIND PRES WAVE SWELL AIR SEA DIR/SP/G HT/PER HT/PER/DIR (UTC) (F) (DEG/KT/KT) (MB) (FT/S) (FT/S/D) FOLLY BEACH CMAN 1400 50 270/ 11/ 15 1020.9R BUOY 41004 1400 57 74 270/ 25/ 29 1019.1R 7/ 6 2/12 BUOY 41008 1400 54 64 300/ 21/ 27 1022.7R 4/ 4 2/120/ 9 CAPERS NEARSHORE 1300 51 280/ 21/ 25 N/A FRIPP NEARSHORE NOT AVBL STATION/POSITION TIME TEMP WIND PRES WAVE SWELL AIR SEA DIR/SP/G HT/PER HT/PER/DIR (UTC) (F) (DEG/KT/KT) (MB) (FT/S) (FT/S/D) 5E ST. MARYS GA 1400 61 N/A 3/ 9 FRYING PAN BUOY 1400 62 71 240/ 27/ 33 1017.1F 6/ 5 2/160/ 8 BUOY 41025 1400 54 CALM / 2 1018.3F 5/ 9 5/120/ 9 CAPE LOOKOUT NC 1400 56 220/ 8/ 10 1016.9F BUOY 41002 1335 67 73 260/ 12/ 16 1020.0F 8/ 8 7/260/ 8 BUOY 41010 1400 68 78 320/ 16/ 19 1023.1R 6/10 3/110/10 ST AUGUSTINE FL 1400 55 290/ 10/ 12 1025.2R $$

USA.gov is the U.S. government's official web portal to all federal, state and local government web resources and services.